Location: Zagreb
(45.8000°N, 16.0000°E)
Time: 10:47:48
(UTC+02:00)

deb Explorer IX - Visible Passes

Search period start: 15 July 2024 00:00
Search period end: 25 July 2024 00:00
Orbit: 511 x 879 km, 38.7° (Epoch: 15 July)

Date Brightness Start Highest point End Pass type
(mag) Time Alt. Az. Time Alt. Az. Time Alt. Az.
15 Jul ? 02:31:01 11° SE 02:31:01 11° SE 02:31:09 10° SE visible
15 Jul ? 04:09:44 15° SW 04:10:35 16° SSW 04:13:03 10° SSE visible
15 Jul ? 21:56:20 10° S 21:57:31 12° SSE 21:57:31 12° SSE visible
16 Jul ? 22:35:20 10° SSW 22:38:47 22° S 22:38:47 22° S visible
17 Jul ? 21:33:35 10° SSW 21:37:11 18° SSE 21:40:36 10° ESE visible
17 Jul ? 23:15:52 10° SW 23:19:21 29° SSW 23:19:21 29° SSW visible
18 Jul ? 22:13:29 10° SW 22:18:12 28° SSE 22:20:39 20° ESE visible
18 Jul ? 23:56:55 10° WSW 23:59:18 23° SW 23:59:18 23° SW visible
19 Jul ? 21:11:17 10° SSW 21:15:44 23° SSE 21:19:55 10° ESE visible
19 Jul ? 22:54:13 10° WSW 22:59:17 37° S 23:00:11 34° SSE visible
20 Jul ? 00:38:12 10° WSW 00:38:49 13° WSW 00:38:49 13° WSW visible
20 Jul ? 21:51:34 10° SW 21:56:42 34° SSE 22:00:48 13° ESE visible
20 Jul ? 23:35:18 10° WSW 23:39:25 35° SSW 23:39:25 35° SSW visible
21 Jul ? 22:32:25 10° WSW 22:37:41 40° S 22:39:50 27° SE visible
22 Jul ? 00:16:36 10° WSW 00:18:25 18° WSW 00:18:25 18° WSW visible
22 Jul ? 21:29:35 10° WSW 21:34:58 38° S 21:39:57 10° ESE visible
22 Jul ? 23:13:31 10° WSW 23:18:37 36° S 23:18:41 36° S visible
23 Jul ? 22:10:28 10° WSW 22:15:52 40° S 22:18:51 22° SE visible
23 Jul ? 23:54:51 10° WSW 23:57:25 21° SW 23:57:25 21° SW visible
24 Jul ? 21:07:27 10° WSW 21:13:01 41° S 21:18:12 10° ESE visible
24 Jul ? 22:51:33 10° WSW 22:56:39 33° SSW 22:57:30 31° S visible
